Regional Weather Roundup
Issued by NWS

Home | Current Version | Previous Version | Text Only | Print | Product List | Glossary Off
Versions: 1 2 3 4 5 6 7 8 9 10 11 12 13 14 15 16 17 18 19 20 21 22 23 24 25 26 27 28 29 30 31 32 33 34 35 36 37 38 39 40 41 42 43 44 45 46 47 48 49 50

134
ASUS45 KPSR 260110
RWRAZ

ARIZONA REGIONAL HOURLY WEATHER ROUNDUP
NATIONAL WEATHER SERVICE TUCSON AZ
600 PM MST SUN JUN 25 2017

NOTE: FAIR INDICATES FEW OR NO CLOUDS BELOW 12,000 FEET WITH NO
SIGNIFICANT WEATHER AND/OR OBSTRUCTIONS TO VISIBILITY.

AZZ001>003-036-260200-
NORTHWEST ARIZONA

CITY           SKY/WX    TMP DP  RH WIND       PRES   REMARKS
BULLHEAD CITY  FAIR     118  27   4 W10       29.65S HX 108
KINGMAN        FAIR     102  34   9 SW9       29.95F
$$

AZZ004>008-015-016-018-260200-
NORTH CENTRAL ARIZONA

CITY           SKY/WX    TMP DP  RH WIND       PRES   REMARKS
GRAND CANYON   FAIR      80  40  23 S7        30.30F
PRESCOTT       FAIR      87  40  19 NE18G24   30.14R
FLAGSTAFF      FAIR      68  54  60 NE5       30.35F
PAYSON         FAIR      82  45  26 NE22G31   30.21R
$$

AZZ009>014-017-260200-
NORTHEAST ARIZONA

CITY           SKY/WX    TMP DP  RH WIND       PRES   REMARKS
WINSLOW        FAIR      83  43  24 W20       30.20R
SAINT JOHNS    LGT RAIN  82  37  20 NW20G46   30.22R
WINDOW ROCK    FAIR      86  28  12 NW8       30.25R
SHOW LOW       LGT RAIN  66  46  48 W20G29    30.34R
$$

AZZ023-260200-
GREATER PHOENIX AREA

CITY           SKY/WX    TMP DP  RH WIND       PRES   REMARKS
PHOENIX        FAIR     114  37   7 W16       29.73S HX 107
BUCKEYE        FAIR     111  41   9 SW9G17    29.73S HX 105
GLENDALE       MOSUNNY  117  32   5 S13G21    29.74F HX 108
LUKE AFB       FAIR     114  37   7 SW7       29.72S HX 106
DEER VALLEY    FAIR     112  34   7 SW13G22   29.75F HX 104
SCOTTSDALE     FAIR     112  39   8 W12       29.78F HX 105
MESA-FALCON    MOSUNNY  111  46  11 W15       29.77S HX 107
MESA-GATEWAY   MOSUNNY  111  41   9 NW16      29.77F HX 105
$$

AZZ027-028-260200-
SOUTHWEST MARICOPA COUNTY AND PINAL COUNTY

CITY           SKY/WX    TMP DP  RH WIND       PRES   REMARKS
CASA GRANDE      N/A    N/A N/A N/A MISG        N/A
$$

AZZ503-504-507>509-260200-
SOUTHEAST ARIZONA

CITY           SKY/WX    TMP DP  RH WIND       PRES   REMARKS
TUCSON         FAIR     107  39  10 N10G21    29.88S HX 101
DAVIS-MONTHAN  FAIR     105  37  10 NW14      29.87S
RYAN FIELD     CLEAR    108  37   9 NW15G23   29.86F HX 101
NOGALES        FAIR      90  49  24 S7        30.05R
SIERRA VISTA   FAIR      93  39  15 NW8       30.11S
DOUGLAS        FAIR      95  42  16 NW14G22   30.03R
SAFFORD        FAIR     102  43  13 VRB5      29.91F
$$

AZZ020-021-025-026-031-260200-
SOUTHWEST ARIZONA

CITY           SKY/WX    TMP DP  RH WIND       PRES   REMARKS
YUMA           FAIR     110  53  15 S17       29.71S HX 108
$$

CAZ031-033-041-043-047-048-061-260200-
SOUTHERN CALIFORNIA

CITY           SKY/WX    TMP DP  RH WIND       PRES   REMARKS
DOWNTOWN L.A.  FAIR      78  62  57 VRB3      29.86F
L.A. AIRPORT   FAIR      71  61  70 SW10      29.87S
SAN DIEGO      FAIR      74  63  68 W9        29.88S
BURBANK        FAIR      84  58  40 SE15      29.86S
ONTARIO        FAIR      92  58  31 W15       29.86S
RIVERSIDE      FAIR      95  60  31 W13       29.86R
PALM SPRINGS   FAIR     116  21   4 NW17G23   29.73S HX 106
EL CENTRO NAS  FAIR     111  54  15 S15       29.69S HX 109
IMPERIAL       CLOUDY   112  60  18 SE16      29.67S HX 113
BLYTHE         PTSUNNY  118  34   6 W18       29.66F HX 109
NEEDLES        PTSUNNY  119  15   3 NW17G23   29.69F HX 107
$$

NVZ020-UTZ003-260200-
SOUTHERN NEVADA-UTAH

CITY           SKY/WX    TMP DP  RH WIND       PRES   REMARKS
LAS VEGAS      FAIR     111  15   3 SW10G20   29.79F HX 101
SALT LAKE CITY FAIR      92  41  17 N10       30.08F
$$

NMZ009-TXZ055-260200-
NEW MEXICO-WEST TEXAS

CITY           SKY/WX    TMP DP  RH WIND       PRES   REMARKS
ALBUQUERQUE    CLOUDY    73  50  44 E7        30.27R
EL PASO        PTSUNNY   83  55  38 E14G25    30.12R
$$


........................KEY........................
SKY/WX - SKY CONDITION/WEATHER
TMP    - TEMPERATURE IN FAHRENHEIT
DP     - DEWPOINT IN FAHRENHEIT
RH     - RELATIVE HUMIDITY IN PERCENT
WIND   - DIRECTION AND SPEED IN MILES PER HOUR (MPH)
VRB    - VARIABLE WIND DIRECTION
PRES   - MEAN SEA LEVEL PRESSURE IN INCHES OF MERCURY
         F - FALLING PRESSURE   R - RISING PRESSURE
         S - STEADY PRESSURE
VSB    - VISIBILITY IN MILES
HX     - HEAT INDEX IN FAHRENHEIT
WCI    - WIND CHILL INDEX IN FAHRENHEIT
TC     - TEMPERATURE IN CELSIUS WHICH IS ALSO KNOWN AS
         TEMPERATURE IN CENTIGRADE
AFB    - AIR FORCE BASE
         LUKE AFB IS LUKE AIR FORCE BASE
         DAVIS-MONTHAN IS DAVIS-MONTHAN AIR FORCE BASE
NAS    - NAVAL AIR STATION
         EL CENTRO NAS IS EL CENTRO NAVAL AIR STATION
N/A    - NOT AVAILABLE





USA.gov is the U.S. government's official web portal to all federal, state and local government web resources and services.